| time (UTC) | temp F | wind direction | speed MPH | gust MPH | rain 1hr in | rain 24hr in | rain mn in | humidity % | barometer mb |
| 20260510043057 | 43 | 0 | 0.0 | 2.0 | 0.01 | 0.01 | 0.01 | 82 | 1025.2 |
| 20260510041600 | 43 | 105 | 0.0 | 2.0 | 0.00 | 0.00 | 0.00 | 81 | 1025.0 |
| 20260510040105 | 44 | 168 | 0.0 | 3.0 | 0.00 | 0.00 | 0.00 | 77 | 1025.3 |
| 20260510034559 | 44 | 133 | 0.0 | 6.0 | 0.00 | 0.00 | 0.00 | 77 | 1025.3 |
| 20260510033104 | 44 | 0 | 0.0 | 4.0 | 0.00 | 0.00 | 0.00 | 78 | 1025.1 |
| 20260510031602 | 44 | 82 | 0.0 | 4.0 | 0.00 | 0.00 | 0.00 | 78 | 1024.6 |
| 20260510024602 | 44 | 0 | 0.0 | 4.0 | 0.00 | 0.00 | 0.00 | 78 | 1024.0 |
| 20260510023056 | 44 | 85 | 3.0 | 14.0 | 0.00 | 0.00 | 0.00 | 77 | 1023.4 |
| 20260510021645 | 44 | 55 | 3.0 | 10.0 | 0.00 | 0.00 | 0.00 | 77 | 1022.9 |
| 20260510020101 | 45 | 49 | 3.0 | 14.0 | 0.00 | 0.00 | 0.00 | 75 | 1022.5 |
| 20260510014600 | 46 | 319 | 5.0 | 18.0 | 0.00 | 0.00 | 0.00 | 72 | 1022.1 |
| 20260510013107 | 47 | 79 | 5.0 | 15.0 | 0.00 | 0.00 | 0.00 | 68 | 1021.3 |
| 20260510011556 | 49 | 75 | 5.0 | 13.0 | 0.00 | 0.00 | 0.00 | 63 | 1020.6 |
| 20260510004555 | 56 | 81 | 6.0 | 15.0 | 0.00 | 0.00 | 0.00 | 47 | 1019.5 |
| 20260510003103 | 64 | 86 | 2.0 | 9.0 | 0.00 | 0.00 | 0.00 | 13 | 1017.9 |
| 20260510001603 | 65 | 353 | 1.0 | 10.0 | 0.00 | 0.00 | 0.00 | 12 | 1017.3 |
| 20260510000056 | 65 | 0 | 2.0 | 7.0 | 0.00 | 0.00 | 0.00 | 13 | 1017.2 |
| 20260509234557 | 67 | 225 | 3.0 | 9.0 | 0.00 | 0.00 | 0.00 | 12 | 1016.9 |
| 20260509233055 | 68 | 82 | 2.0 | 8.0 | 0.00 | 0.00 | 0.00 | 11 | 1016.7 |
| 20260509231604 | 68 | 32 | 2.0 | 9.0 | 0.00 | 0.00 | 0.00 | 11 | 1016.5 |
| 20260509230059 | 69 | 74 | 1.0 | 7.0 | 0.00 | 0.00 | 0.00 | 10 | 1016.3 |
| 20260509224600 | 70 | 174 | 2.0 | 8.0 | 0.00 | 0.00 | 0.00 | 9 | 1016.0 |
| 20260509223100 | 70 | 167 | 2.0 | 12.0 | 0.00 | 0.00 | 0.00 | 8 | 1016.2 |
| 20260509221556 | 70 | 36 | 4.0 | 17.0 | 0.00 | 0.00 | 0.00 | 10 | 1016.0 |
| 20260509220055 | 70 | 331 | 5.0 | 13.0 | 0.00 | 0.00 | 0.00 | 12 | 1015.9 |
| 20260509214555 | 71 | 159 | 4.0 | 12.0 | 0.00 | 0.00 | 0.00 | 11 | 1016.0 |
| 20260509213114 | 70 | 132 | 4.0 | 11.0 | 0.00 | 0.00 | 0.00 | 10 | 1016.1 |
| 20260509211604 | 71 | 63 | 3.0 | 14.0 | 0.00 | 0.00 | 0.00 | 11 | 1015.8 |
| 20260509210059 | 71 | 82 | 6.0 | 12.0 | 0.00 | 0.00 | 0.00 | 11 | 1016.0 |
| 20260509204556 | 71 | 91 | 5.0 | 11.0 | 0.00 | 0.00 | 0.00 | 13 | 1016.4 |
| 20260509203057 | 69 | 34 | 4.0 | 13.0 | 0.00 | 0.00 | 0.00 | 14 | 1016.5 |
| 20260509201605 | 68 | 236 | 5.0 | 10.0 | 0.00 | 0.00 | 0.00 | 15 | 1016.7 |
| 20260509200103 | 68 | 278 | 6.0 | 16.0 | 0.00 | 0.00 | 0.00 | 14 | 1017.0 |
| 20260509194601 | 68 | 76 | 4.0 | 12.0 | 0.00 | 0.00 | 0.00 | 16 | 1017.0 |
| 20260509193057 | 70 | 53 | 6.0 | 11.0 | 0.00 | 0.00 | 0.00 | 13 | 1017.0 |
| 20260509191607 | 70 | 124 | 2.0 | 8.0 | 0.00 | 0.00 | 0.00 | 14 | 1017.1 |
| 20260509190058 | 68 | 202 | 5.0 | 11.0 | 0.00 | 0.00 | 0.00 | 14 | 1017.3 |
| 20260509184610 | 68 | 116 | 3.0 | 14.0 | 0.00 | 0.00 | 0.00 | 14 | 1017.3 |
| 20260509183104 | 69 | 220 | 5.0 | 9.0 | 0.00 | 0.00 | 0.00 | 12 | 1017.0 |
| 20260509181602 | 68 | 101 | 6.0 | 15.0 | 0.00 | 0.00 | 0.00 | 13 | 1016.9 |
| 20260509180115 | 69 | 37 | 4.0 | 11.0 | 0.00 | 0.00 | 0.00 | 15 | 1017.2 |
| 20260509174604 | 68 | 44 | 3.0 | 13.0 | 0.00 | 0.00 | 0.00 | 16 | 1017.3 |
| 20260509173106 | 68 | 82 | 3.0 | 11.0 | 0.00 | 0.00 | 0.00 | 17 | 1017.3 |
| 20260509171559 | 67 | 96 | 4.0 | 11.0 | 0.00 | 0.00 | 0.00 | 18 | 1017.3 |
| 20260509170100 | 66 | 59 | 5.0 | 13.0 | 0.00 | 0.00 | 0.00 | 18 | 1017.2 |
| 20260509164555 | 67 | 122 | 5.0 | 11.0 | 0.00 | 0.00 | 0.00 | 19 | 1017.0 |
| 20260509163101 | 67 | 64 | 5.0 | 13.0 | 0.00 | 0.00 | 0.00 | 18 | 1016.9 |
| 20260509161604 | 66 | 51 | 5.0 | 14.0 | 0.00 | 0.00 | 0.00 | 18 | 1016.7 |
| 20260509154556 | 65 | 96 | 5.0 | 10.0 | 0.00 | 0.00 | 0.00 | 21 | 1016.5 |
| 20260509153104 | 65 | 120 | 3.0 | 6.0 | 0.00 | 0.00 | 0.00 | 21 | 1016.6 |
| 20260509151600 | 63 | 259 | 1.0 | 6.0 | 0.00 | 0.00 | 0.00 | 22 | 1016.9 |
| 20260509150056 | 62 | 45 | 2.0 | 5.0 | 0.00 | 0.00 | 0.00 | 22 | 1016.9 |
| 20260509144558 | 62 | 317 | 0.0 | 4.0 | 0.00 | 0.00 | 0.00 | 24 | 1017.1 |
| 20260509143100 | 61 | 210 | 2.0 | 5.0 | 0.00 | 0.00 | 0.00 | 23 | 1017.1 |
| 20260509141558 | 60 | 207 | 1.0 | 3.0 | 0.00 | 0.00 | 0.00 | 25 | 1017.1 |
| 20260509140108 | 56 | 199 | 0.0 | 6.0 | 0.00 | 0.00 | 0.00 | 32 | 1017.3 |
| 20260509134555 | 53 | 183 | 2.0 | 6.0 | 0.00 | 0.00 | 0.00 | 33 | 1017.2 |
| 20260509133054 | 52 | 205 | 3.0 | 6.0 | 0.00 | 0.00 | 0.00 | 36 | 1017.2 |
| 20260509131558 | 52 | 225 | 5.0 | 9.0 | 0.00 | 0.00 | 0.00 | 37 | 1017.2 |
| 20260509130100 | 52 | 189 | 5.0 | 10.0 | 0.00 | 0.00 | 0.00 | 37 | 1017.0 |
| 20260509124559 | 53 | 230 | 2.0 | 6.0 | 0.00 | 0.00 | 0.00 | 36 | 1016.8 |
| 20260509123103 | 53 | 217 | 4.0 | 6.0 | 0.00 | 0.00 | 0.00 | 35 | 1016.4 |
| 20260509121601 | 53 | 212 | 3.0 | 8.0 | 0.00 | 0.00 | 0.00 | 36 | 1016.2 |
| 20260509120057 | 53 | 251 | 4.0 | 8.0 | 0.00 | 0.00 | 0.00 | 35 | 1015.8 |
| 20260509114600 | 52 | 99 | 1.0 | 3.0 | 0.00 | 0.00 | 0.00 | 37 | 1015.6 |
| 20260509113100 | 52 | 0 | 1.0 | 3.0 | 0.00 | 0.00 | 0.00 | 38 | 1015.4 |
| 20260509111559 | 52 | 30 | 2.0 | 7.0 | 0.00 | 0.00 | 0.00 | 38 | 1015.3 |
| 20260509110056 | 52 | 0 | 0.0 | 3.0 | 0.00 | 0.00 | 0.00 | 38 | 1015.1 |
| 20260509104603 | 53 | 120 | 1.0 | 5.0 | 0.00 | 0.00 | 0.00 | 37 | 1015.3 |
| 20260509103106 | 54 | 254 | 0.0 | 13.0 | 0.00 | 0.00 | 0.00 | 36 | 1014.9 |
| 20260509101620 | 54 | 198 | 6.0 | 16.0 | 0.00 | 0.00 | 0.00 | 35 | 1014.7 |
| 20260509100059 | 54 | 203 | 4.0 | 10.0 | 0.00 | 0.00 | 0.00 | 35 | 1015.1 |
| 20260509094602 | 53 | 200 | 0.0 | 4.0 | 0.00 | 0.00 | 0.00 | 35 | 1015.2 |
| 20260509093059 | 54 | 200 | 1.0 | 10.0 | 0.00 | 0.00 | 0.00 | 35 | 1015.3 |
| 20260509091558 | 54 | 0 | 1.0 | 8.0 | 0.00 | 0.00 | 0.00 | 36 | 1015.1 |
| 20260509090105 | 54 | 185 | 3.0 | 7.0 | 0.00 | 0.00 | 0.00 | 35 | 1015.0 |
| 20260509084604 | 53 | 169 | 1.0 | 10.0 | 0.00 | 0.00 | 0.00 | 36 | 1014.9 |
| 20260509083109 | 53 | 266 | 2.0 | 5.0 | 0.00 | 0.00 | 0.00 | 37 | 1015.0 |
| 20260509081557 | 55 | 0 | 1.0 | 5.0 | 0.00 | 0.00 | 0.00 | 34 | 1015.1 |
| 20260509080059 | 55 | 227 | 4.0 | 7.0 | 0.00 | 0.00 | 0.00 | 33 | 1015.2 |
| 20260509074612 | 54 | 229 | 2.0 | 5.0 | 0.00 | 0.00 | 0.00 | 35 | 1015.3 |
| 20260509073107 | 54 | 0 | 0.0 | 6.0 | 0.00 | 0.00 | 0.00 | 35 | 1015.3 |
| 20260509071603 | 54 | 217 | 1.0 | 7.0 | 0.00 | 0.00 | 0.00 | 35 | 1015.5 |
| 20260509070106 | 54 | 221 | 1.0 | 8.0 | 0.00 | 0.00 | 0.00 | 37 | 1015.5 |
| 20260509064601 | 53 | 235 | 1.0 | 4.0 | 0.00 | 0.00 | 0.00 | 36 | 1015.5 |
| 20260509063102 | 52 | 250 | 0.0 | 3.0 | 0.00 | 0.00 | 0.00 | 43 | 1015.7 |
| 20260509061556 | 52 | 0 | 0.0 | 3.0 | 0.00 | 0.00 | 0.00 | 41 | 1015.6 |
| 20260509060112 | 51 | 221 | 0.0 | 5.0 | 0.00 | 0.00 | 0.00 | 49 | 1015.8 |
| 20260509054557 | 52 | 0 | 0.0 | 4.0 | 0.00 | 0.00 | 0.00 | 51 | 1016.0 |
| 20260509053116 | 52 | 249 | 4.0 | 7.0 | 0.00 | 0.00 | 0.00 | 51 | 1016.1 |
| 20260509051609 | 50 | 241 | 0.0 | 3.0 | 0.00 | 0.00 | 0.00 | 60 | 1016.4 |
| 20260509044559 | 50 | 0 | 1.0 | 4.0 | 0.00 | 0.00 | 0.00 | 59 | 1016.7 |